shoulder
new_line
new_line
first
second
third
Al di la della Luna; Beyond the Moon; Astrophotography; Astrofotografia; Danilo Pivato
 
 
         
         
2011

Orbital Elements

Epoch 2011 June 8.0 TT = JDT 2455720.5
T 2011 June 16.26367 TT                                                           MPC
q   2.1225796            (2000.0)                          P                      Q
n   0.15574946    Peri.    3.33208         +0.71872845      +0.68289645
a   3.4212516      Node   312.67363     -0.64195641       +0.57956550
e   0.3795898      Incl.    10.23960        -0.26706065       +0.44469795
P   6.33
Return in the future: 2023              
 
         
         
2011.08.07
 
         
         
       
       
         
         
         

 

       
 
Since: 01/01/2004
 
           
Since: 01/11/2010